[[{"header":{"parameterUnit":"m.s-1","parameterCategory":1,"la1":30.2991,"la2":30.254,"lo1":-89.0895,"lo2":-89.0444,"dy":0.0017,"dx":0.0017,"nx":28,"ny":28,"refTime":"2024-06-25T03:00:00:Z","depth":0,"parameterNumber":2,"parameterNumberName":"U-component_of_WINDS"},"data":[0,0,0,0,0,0,0,0,0,0,0,0,0,0,0,0,0,0,0,0,0,0,0,0,0,0,0,0,0,0,0,0,0,0,0,0,0,0,0,0,0,0,0,0,0,0,0,0,0,0,0,0,0,0,0,0,0,0,2.0467,2.0469,0,2.066,2.0662,2.0665,2.0716,2.0715,2.0714,2.0713,2.0912,2.0918,2.0924,0,0,0,0,0,0,0,0,0,0,0,0,0,2.0143,2.0148,2.0467,2.0469,2.0472,2.066,2.0663,2.0665,2.0717,2.0715,2.0714,2.0713,2.091,2.0917,2.0925,0,0,0,0,0,0,0,0,0,0,0,0,0,2.0304,2.015,2.0466,2.052,2.0527,2.0659,2.0663,2.0666,2.0717,2.0715,2.0713,2.0712,2.0907,2.0916,2.0926,2.1019,0,0,2.0955,2.0959,0,0,0,0,0,0,0,0,2.0295,2.0316,2.051,2.0516,2.0524,2.0662,2.0621,2.0784,2.0717,2.0645,2.0713,2.0711,2.083,2.0846,2.0886,2.1028,2.1037,2.0956,2.0962,2.0966,2.0968,0,0,0,0,0,0,0,2.0284,2.0308,2.0543,2.0512,2.0521,2.0535,2.0556,2.0652,2.0745,2.0651,2.0655,2.0677,2.0834,2.0877,2.0891,2.104,2.0956,2.0964,2.097,2.0974,2.1269,2.1271,0,0,0,0,0,0,2.0263,2.0298,2.0537,2.0549,2.0403,2.0542,2.0565,2.062,2.0744,2.0761,2.0679,2.0679,2.0861,2.088,2.0898,2.1016,2.0966,2.0975,2.098,2.1267,2.127,2.1272,0,0,0,0,0,0,2.0256,2.0284,2.0529,2.0425,2.0457,2.0549,2.061,2.0625,2.0667,2.0765,2.0782,2.0705,2.0861,2.0885,2.0989,2.1023,2.0979,2.0988,2.1265,2.1268,2.1271,2.1251,0,0,0,0,0,0,2.0247,2.0281,2.0317,2.0425,2.0463,2.0616,2.0612,2.063,2.0684,2.0686,2.0794,2.0811,2.0861,2.0974,2.0998,2.1036,2.0995,2.1262,2.1266,2.127,2.1249,2.1253,2.1256,0,0,0,0,0,2.0235,2.0304,2.0319,2.0347,2.051,2.0618,2.0639,2.0696,2.0686,2.0723,2.0786,2.0807,2.1016,2.0984,2.1012,2.1053,2.126,2.1265,2.1269,2.1247,2.1252,2.1256,0,0,0,0,0,0,2.0197,2.0319,2.0337,2.0443,2.052,2.0626,2.0675,2.0699,2.0781,2.0779,2.0847,2.0871,2.097,2.1022,2.0985,2.115,2.1138,2.1149,2.1112,2.1117,2.1121,2.1106,2.1003,0,0,0,0,0,2.0202,2.0279,2.0382,2.0465,2.0503,2.0582,2.0632,2.0669,2.0751,2.0784,2.0854,2.0933,2.1017,2.107,2.1152,2.1257,2.1281,2.1299,2.1302,2.1305,2.1313,2.1372,2.1381,2.1288,2.1288,2.1287,0,0,2.0211,2.0287,2.0332,2.046,2.0524,2.0603,2.0609,2.0693,2.0752,2.0796,2.0898,2.0953,2.1046,2.115,2.12,2.1197,2.1345,2.1311,2.1313,2.1319,2.1378,2.1387,2.1395,2.1291,2.129,2.129,0,0,2.0268,2.0333,2.041,2.0474,2.0571,2.0623,2.0642,2.0745,2.0783,2.0887,2.0922,2.0994,2.1136,2.1201,2.1252,2.1335,2.1357,2.136,2.1379,2.1436,2.1444,2.1451,2.148,2.1489,2.1368,2.1368,2.1368,0,2.0267,2.0387,2.0447,2.0529,2.0584,2.0628,2.0707,2.0766,2.0884,2.0922,2.0916,2.1096,2.1162,2.1282,2.1302,2.1343,2.1366,2.1347,2.1438,2.1445,2.1453,2.1481,2.1492,2.1367,2.1367,2.1367,2.1367,0,2.0381,2.0464,2.0515,2.0628,2.0689,2.0769,2.0841,2.0896,2.0928,2.0981,2.1086,2.1167,2.1266,2.1298,2.133,2.1423,2.1418,2.1424,2.1414,2.146,2.1488,2.1499,2.1367,2.1367,2.1367,2.1367,0,0,2.0418,2.0564,2.0582,2.0634,2.0744,2.081,2.0892,2.0989,2.1034,2.1115,2.1185,2.1305,2.1312,2.1371,2.1411,2.1461,2.1521,2.1462,2.1465,2.1469,2.1628,2.1621,2.1633,2.1537,2.1539,2.1541,2.162,0,2.0489,2.0636,2.0693,2.0813,2.0891,2.0935,2.1006,2.1082,2.1134,2.1207,2.1265,2.1349,2.1352,2.1388,2.1439,2.1502,2.1553,2.1497,2.1602,2.1605,2.1576,2.1647,2.1641,2.1711,2.1631,2.1633,2.1634,0,2.059,2.0671,2.0799,2.0901,2.0935,2.0998,2.1092,2.1162,2.1249,2.1283,2.1349,2.1386,2.1474,2.1459,2.1581,2.1541,2.1588,2.1626,2.163,2.1641,2.1622,2.1659,2.1735,2.1745,2.1652,2.1651,2.1649,0,2.0603,2.0745,2.084,2.0884,2.1004,2.1047,2.11,2.1185,2.124,2.1322,2.1358,2.145,2.1499,2.157,2.1631,2.1614,2.1747,2.1737,2.1778,2.1776,2.1803,2.18,2.1886,2.1834,2.1834,2.1834,2.1834,0,2.0675,2.0751,2.0848,2.0906,2.0993,2.1058,2.1143,2.1198,2.1274,2.1344,2.1388,2.1453,2.153,2.1605,2.1653,2.1747,2.1769,2.1799,2.1811,2.1795,2.1791,2.1826,2.1822,2.1837,2.1836,2.1836,2.1835,0,2.0704,2.0772,2.0878,2.0984,2.1012,2.1072,2.1162,2.1221,2.1275,2.1364,2.1388,2.1474,2.1564,2.1632,2.175,2.1783,2.1882,2.1895,2.1852,2.1858,2.1895,2.189,2.2005,2.2023,2.196,2.196,2.1961,0,2.0744,2.0804,2.0917,2.0967,2.1019,2.1099,2.1155,2.1222,2.1278,2.1382,2.1428,2.1522,2.16,2.1743,2.1816,2.1906,2.1921,2.1955,2.1935,2.1916,2.1921,2.1916,2.1922,2.1957,2.1958,2.1958,2.1958,0,2.0809,2.084,2.0919,2.1011,2.1077,2.1152,2.1228,2.1267,2.1347,2.1409,2.1502,2.1562,2.1683,2.1775,2.1873,2.1927,2.1956,2.1964,2.1978,2.1962,2.1934,2.1949,2.1859,2.1961,2.1961,2.196,2.196,2.196,2.0845,2.09,2.0988,2.1075,2.1139,2.121,2.127,2.1332,2.1411,2.1513,2.1548,2.1644,2.1731,2.1865,2.192,2.1996,2.1997,2.2017,2.2022,2.2026,2.2024,2.1923,2.2015,2.2015,2.2015,2.2015,2.2015,0,2.0911,2.097,2.1049,2.1155,2.1223,2.1245,2.1331,2.1386,2.147,2.1548,2.1625,2.1732,2.1822,2.1902,2.1996,2.2042,2.2057,2.2064,2.2061,2.2073,2.2019,2.1997,2.205,2.205,2.205,2.205,2.2049,2.2049,2.0953,2.1048,2.1089,2.1217,2.1275,2.137,2.1417,2.1482,2.1544,2.1662,2.1737,2.1789,2.1868,2.1968,2.2052,2.2073,2.2105,2.2108,2.2133,2.2081,2.2076,2.2072,2.2052,2.2115,2.2115,2.218,2.2181,2.2181]},{"header":{"parameterUnit":"m.s-1","parameterCategory":1,"la1":30.2991,"la2":30.254,"lo1":-89.0895,"lo2":-89.0444,"dy":0.0017,"dx":0.0017,"nx":28,"ny":28,"refTime":"2024-06-25T03:00:00:Z","depth":0,"parameterNumber":3,"parameterNumberName":"V-component_of_WINDS"},"data":[0,0,0,0,0,0,0,0,0,0,0,0,0,0,0,0,0,0,0,0,0,0,0,0,0,0,0,0,0,0,0,0,0,0,0,0,0,0,0,0,0,0,0,0,0,0,0,0,0,0,0,0,0,0,0,0,0,0,4.9543,4.9543,0,4.9572,4.9572,4.9573,4.9506,4.9504,4.9502,4.95,4.9524,4.9527,4.9529,0,0,0,0,0,0,0,0,0,0,0,0,0,4.9424,4.9426,4.9543,4.9543,4.9543,4.9572,4.9572,4.9573,4.9506,4.9504,4.9501,4.9499,4.9523,4.9526,4.953,0,0,0,0,0,0,0,0,0,0,0,0,0,4.9466,4.9427,4.9542,4.9514,4.9512,4.9572,4.9572,4.9573,4.9507,4.9504,4.9501,4.9498,4.9522,4.9526,4.953,4.9618,0,0,4.9542,4.9544,0,0,0,0,0,0,0,0,4.9464,4.9471,4.9518,4.9516,4.9513,4.9532,4.9539,4.9588,4.9508,4.9509,4.95,4.9496,4.9529,4.9532,4.9545,4.9619,4.962,4.9542,4.9545,4.9546,4.9548,0,0,0,0,0,0,0,4.9461,4.9469,4.9554,4.9518,4.9516,4.9498,4.95,4.9548,4.9536,4.9508,4.9503,4.9508,4.9527,4.9541,4.9545,4.962,4.9542,4.9546,4.9548,4.955,4.9769,4.9772,0,0,0,0,0,0,4.9462,4.9467,4.9553,4.9555,4.9481,4.9502,4.9505,4.9529,4.9535,4.9533,4.9511,4.9505,4.9536,4.954,4.9545,4.9649,4.9546,4.955,4.9552,4.9765,4.9769,4.9773,0,0,0,0,0,0,4.946,4.9471,4.9552,4.951,4.9519,4.9508,4.9535,4.9532,4.9545,4.9537,4.9534,4.9527,4.9533,4.954,4.9601,4.9649,4.9552,4.9555,4.9761,4.9767,4.9771,4.9857,0,0,0,0,0,0,4.9457,4.947,4.9505,4.9511,4.9521,4.9609,4.9538,4.9534,4.9553,4.9545,4.9552,4.955,4.9531,4.9595,4.9605,4.9652,4.9559,4.9757,4.9764,4.977,4.985,4.9864,4.9877,0,0,0,0,0,4.9453,4.9526,4.9507,4.9518,4.9564,4.9612,4.9617,4.9596,4.9557,4.9591,4.9586,4.955,4.9642,4.9602,4.9612,4.9662,4.9754,4.9762,4.9769,4.9844,4.9862,4.9877,0,0,0,0,0,0,4.9523,4.9526,4.9505,4.9583,4.9598,4.96,4.9642,4.9615,4.964,4.9632,4.9602,4.9604,4.9671,4.9672,4.9628,4.9747,4.9691,4.9701,4.9744,4.9761,4.9775,4.9773,4.9562,0,0,0,0,0,4.9548,4.9589,4.9588,4.9657,4.9666,4.9653,4.9673,4.9655,4.9669,4.9674,4.9673,4.9686,4.9718,4.9739,4.9768,4.985,4.985,4.9889,4.9902,4.9914,4.9923,4.9966,4.9983,4.9799,4.9799,4.9798,0,0,4.9599,4.9606,4.9633,4.9671,4.9681,4.9721,4.9659,4.9704,4.9733,4.968,4.9739,4.9739,4.9751,4.9823,4.9855,4.9826,4.9974,4.9923,4.9932,4.9935,4.9976,4.9993,5.0009,4.9804,4.9803,4.9802,0,0,4.9714,4.9723,4.9782,4.9793,4.981,4.9801,4.9815,4.9822,4.9821,4.988,4.9841,4.9875,4.993,4.9941,4.9953,5.0074,5.0041,5.0083,5.0154,5.0197,5.0212,5.0225,5.0268,5.0284,5.0093,5.0093,5.0093,0,4.9774,4.9837,4.9815,4.9864,4.9882,4.9838,4.9896,4.9908,4.9932,4.9944,4.9912,4.9982,4.9987,5.0061,5.0091,5.0102,5.0117,5.0083,5.0212,5.0224,5.0236,5.0277,5.0293,5.0098,5.0097,5.0097,5.0096,0,4.9911,4.9954,4.9999,5.0027,5.0049,5.0103,5.0088,5.0113,5.0094,5.0088,5.0149,5.0153,5.0183,5.0199,5.018,5.0271,5.0253,5.0217,5.016,5.0259,5.0297,5.0312,5.0105,5.0103,5.0102,5.0101,0,0,5.0069,5.0085,5.0102,5.0115,5.013,5.0162,5.0213,5.0244,5.0267,5.0285,5.0327,5.0375,5.0343,5.0357,5.0339,5.0376,5.0472,5.0336,5.0336,5.0361,5.0573,5.06,5.0619,5.0451,5.0454,5.0456,5.0572,0,5.0182,5.0273,5.0256,5.0344,5.0384,5.0343,5.0387,5.0401,5.0397,5.0429,5.0424,5.0459,5.0413,5.0422,5.0458,5.0453,5.0514,5.0444,5.0488,5.049,5.0487,5.0639,5.0667,5.0777,5.0587,5.0589,5.0591,0,5.0327,5.0354,5.0447,5.0457,5.0473,5.0514,5.0541,5.0573,5.0587,5.0581,5.0599,5.0573,5.0623,5.0566,5.0633,5.0586,5.0603,5.0604,5.0607,5.0611,5.0547,5.0646,5.0811,5.0828,5.0614,5.0612,5.0611,0,5.0434,5.0493,5.0556,5.0568,5.0581,5.0611,5.0618,5.0629,5.0649,5.0672,5.0685,5.0713,5.0729,5.0751,5.0733,5.0693,5.0804,5.0744,5.08,5.08,5.0825,5.0824,5.0995,5.0835,5.0835,5.0835,5.0835,0,5.0563,5.0621,5.0605,5.0644,5.0708,5.0687,5.075,5.0751,5.0762,5.08,5.0765,5.0801,5.0775,5.0808,5.0794,5.0853,5.086,5.0856,5.0852,5.086,5.086,5.087,5.0862,5.0839,5.0838,5.0837,5.0837,0,5.0693,5.0684,5.0751,5.0759,5.0763,5.081,5.0816,5.0852,5.0846,5.0894,5.0904,5.0894,5.0932,5.0917,5.0955,5.0946,5.1021,5.1006,5.1017,5.1013,5.107,5.1065,5.1254,5.1278,5.1103,5.1104,5.1106,0,5.0775,5.082,5.0834,5.0859,5.0869,5.0907,5.0929,5.0909,5.0932,5.0953,5.0986,5.1021,5.1048,5.1109,5.1104,5.1134,5.112,5.1184,5.1124,5.1131,5.1121,5.1119,5.1124,5.1196,5.1198,5.12,5.1201,0,5.0924,5.0918,5.0951,5.0984,5.1012,5.1035,5.1056,5.1077,5.1059,5.1086,5.1126,5.1147,5.1188,5.1222,5.1249,5.1253,5.1225,5.122,5.1235,5.1243,5.1248,5.1247,5.105,5.1216,5.1214,5.1213,5.1212,5.1212,5.1033,5.1071,5.1088,5.1127,5.1141,5.1161,5.1196,5.1196,5.1229,5.1263,5.1248,5.1294,5.1307,5.134,5.1349,5.1383,5.1358,5.1378,5.1384,5.1389,5.1397,5.1243,5.1388,5.1387,5.1387,5.1386,5.1386,0,5.118,5.1189,5.1225,5.1257,5.1287,5.126,5.1281,5.1308,5.1349,5.1365,5.1394,5.1439,5.1473,5.1472,5.1503,5.153,5.1518,5.1539,5.1537,5.1539,5.1418,5.1403,5.1549,5.1549,5.1549,5.1549,5.1549,5.1549,5.126,5.1324,5.132,5.139,5.1398,5.1445,5.146,5.1478,5.1491,5.1545,5.1574,5.1574,5.1583,5.1614,5.1644,5.1643,5.1656,5.1683,5.1677,5.1563,5.1547,5.1532,5.1517,5.1686,5.1686,5.1795,5.1796,5.1797]}]]